Location: Montclair
(37.8322°N, 122.2092°W)
Time: 07:20:27
(UTC+00:00)

Cosmos 1606 Rocket - Pass Details

Date: 08 December 2024
Orbit: 599 x 625 km, 82.5° (Epoch: 18 January)

Event Time Altitude Azimuth Distance (km) Brightness Sun altitude
Rises 01:39:36 0° 209° (SSW) 2,834 7.8 -9.8°
Reaches altitude 10° 01:42:00 10° 220° (SW) 1,934 7.1 -10.2°
Maximum altitude 01:45:48 31° 283° (WNW) 1,064 5.4 -10.9°
Drops below altitude 10° 01:49:38 10° 346° (NNW) 1,946 6.1 -11.6°
Sets 01:52:03 0° 357° (N) 2,854 6.8 -12.1°
